Hourly Data Report for February 23, 2018

MIRAMICHI RCS
NEW BRUNSWICK

47°00'34.000" N
65°27'54.000" W
33.00 m
8100989
71744
ACQ

Download Data

Hourly Data (February 2018)
Hourly Data Report for February 23, 2018
TIME
LST
Temp Definition
°C
Dew Point Definition
°C
Rel Hum Definition
%
Precip. Amount Definition
mm

Wind Dir Definition
10's deg

Wind Spd Definition
km/h
Visibility Definition
km
Stn Press Definition
kPa
Hmdx Definition


Wind Chill Definition


Weather Definition


00:00 -9.4 -16.8 55 0.0 30 8   103.37   -14 LegendNANA
01:00 -10.2 -16.9 58 0.0 29 11   103.43   -16 LegendNANA
02:00 -11.2 -16.5 65 0.0 28 7   103.49   -15 LegendNANA
03:00 -11.4 -17.0 63 0.0 26 5   103.51   -15 LegendNANA
04:00 -12.5 -17.3 67 0.0 26 7   103.49   -17 LegendNANA
05:00 -13.2 -17.6 70 0.0 27 5   103.48   -17 LegendNANA
06:00 -15.3 -18.5 76 0.0 28 8   103.48   -21 LegendNANA
07:00 -15.2 -18.3 77 0.0 26 7   103.51   -20 LegendNANA
08:00 -15.0 -18.4 75 0.0 26 10   103.52   -21 LegendNANA
09:00 -12.0 -17.1 66 0.0 25 8   103.52   -17 LegendNANA
10:00 -9.1 -15.6 59 0.0 23 10   103.46   -14 LegendNANA
11:00 -6.6 -15.3 50 0.0 23 10   103.42   -11 LegendNANA
12:00 -4.9 -14.6 47 0.0 24 8   103.35   -8 LegendNANA
13:00 -3.1 -14.1 42 0.0 19 5   103.20   -5 LegendNANA
14:00 -2.9 -14.5 41 0.0 22 11   102.97   -7 LegendNANA
15:00 -2.1 -14.6 38 0.0 22 12   102.81   -6 LegendNANA
16:00 -1.9 -13.9 39 0.0 20 16   102.66   -7 LegendNANA
17:00 -2.0 -14.5 38 0.0 20 17   102.50   -7 LegendNANA
18:00 -2.1 -14.0 40 0.0 19 11   102.37   -6 LegendNANA
19:00 -2.5 -13.4 43 0.0 20 21   102.22   -9 LegendNANA
20:00 -3.0 -13.3 45 0.0 20 18   101.98   -9 LegendNANA
21:00 -3.1 -13.2 46 0.0 21 21   101.83   -9 LegendNANA
22:00 -3.3 -12.2 50 0.0 20 19   101.50   -9 LegendNANA
23:00 -4.4 -7.6 78 0.0 21 32   101.40   -12 LegendNANA

Notes on Data Quality.

Legend

  • E = Estimated
  • M = Missing
  • NA = Not Available*
  • [empty] = Indicates an unobserved value
Date modified: